owner,sensor,date,latitude,longitude,air_pressure(mBar),qcFlag 
NDBC,ioos:station:NOAA.NDBC:PTAT2:1,2016-02-01T16:00:00Z,27.8260,-97.0510,1011.0,1111122 
NDBC,ioos:station:NOAA.NDBC:PTAT2:1,2016-02-01T17:00:00Z,27.8260,-97.0510,1010.4,1111122 
NDBC,ioos:station:NOAA.NDBC:PTAT2:1,2016-02-01T18:00:00Z,27.8260,-97.0510,1009.6,1111122 
NDBC,ioos:station:NOAA.NDBC:PTAT2:1,2016-02-01T19:00:00Z,27.8260,-97.0510,1008.1,1111122 
NDBC,ioos:station:NOAA.NDBC:PTAT2:1,2016-02-01T20:00:00Z,27.8260,-97.0510,1006.6,1111122 
NDBC,ioos:station:NOAA.NDBC:PTAT2:1,2016-02-01T21:00:00Z,27.8260,-97.0510,1005.2,1111122 
NDBC,ioos:station:NOAA.NDBC:PTAT2:1,2016-02-01T22:00:00Z,27.8260,-97.0510,1004.4,1111122 
NDBC,ioos:station:NOAA.NDBC:PTAT2:1,2016-02-01T23:00:00Z,27.8260,-97.0510,1003.6,1111122 
NDBC,ioos:station:NOAA.NDBC:PTAT2:1,2016-02-02T00:00:00Z,27.8260,-97.0510,1003.2,1111122 
NDBC,ioos:station:NOAA.NDBC:PTAT2:1,2016-02-02T01:00:00Z,27.8260,-97.0510,1002.3,1111122 
NDBC,ioos:station:NOAA.NDBC:PTAT2:1,2016-02-02T02:00:00Z,27.8260,-97.0510,1003.0,1111122 
NDBC,ioos:station:NOAA.NDBC:PTAT2:1,2016-02-02T03:00:00Z,27.8260,-97.0510,1003.3,1111122 
NDBC,ioos:station:NOAA.NDBC:PTAT2:1,2016-02-02T04:00:00Z,27.8260,-97.0510,1003.5,1111122 
NDBC,ioos:station:NOAA.NDBC:PTAT2:1,2016-02-02T05:00:00Z,27.8260,-97.0510,1002.5,1111122 
NDBC,ioos:station:NOAA.NDBC:PTAT2:1,2016-02-02T06:00:00Z,27.8260,-97.0510,1001.9,1111122 
NDBC,ioos:station:NOAA.NDBC:PTAT2:1,2016-02-02T07:00:00Z,27.8260,-97.0510,1002.6,1111122 
NDBC,ioos:station:NOAA.NDBC:PTAT2:1,2016-02-02T08:00:00Z,27.8260,-97.0510,1002.0,1111122 
NDBC,ioos:station:NOAA.NDBC:PTAT2:1,2016-02-02T09:00:00Z,27.8260,-97.0510,1004.2,1111122 
NDBC,ioos:station:NOAA.NDBC:PTAT2:1,2016-02-02T10:00:00Z,27.8260,-97.0510,1004.3,1111122 
NDBC,ioos:station:NOAA.NDBC:PTAT2:1,2016-02-02T11:00:00Z,27.8260,-97.0510,1004.6,1111122 
NDBC,ioos:station:NOAA.NDBC:PTAT2:1,2016-02-02T12:00:00Z,27.8260,-97.0510,1005.4,1111122 
NDBC,ioos:station:NOAA.NDBC:PTAT2:1,2016-02-02T13:00:00Z,27.8260,-97.0510,1006.7,1111122 
NDBC,ioos:station:NOAA.NDBC:PTAT2:1,2016-02-02T14:00:00Z,27.8260,-97.0510,1008.2,1111122 
NDBC,ioos:station:NOAA.NDBC:PTAT2:1,2016-02-02T15:00:00Z,27.8260,-97.0510,1008.8,1111122 
NDBC,ioos:station:NOAA.NDBC:PTAT2:1,2016-02-02T16:00:00Z,27.8260,-97.0510,1009.8,1111122 
NDBC,ioos:station:NOAA.NDBC:PTAT2:1,2016-02-02T19:00:00Z,27.8260,-97.0510,1008.0,1111122 
NDBC,ioos:station:NOAA.NDBC:PTAT2:1,2016-02-02T20:00:00Z,27.8260,-97.0510,1007.4,1111122 
NDBC,ioos:station:NOAA.NDBC:PTAT2:1,2016-02-02T21:00:00Z,27.8260,-97.0510,1007.1,1111122 
NDBC,ioos:station:NOAA.NDBC:PTAT2:1,2016-02-02T22:00:00Z,27.8260,-97.0510,1007.4,1111122 
NDBC,ioos:station:NOAA.NDBC:PTAT2:1,2016-02-02T23:00:00Z,27.8260,-97.0510,1008.1,1111122 
NDBC,ioos:station:NOAA.NDBC:PTAT2:1,2016-02-03T00:00:00Z,27.8260,-97.0510,1008.5,1111122 
NDBC,ioos:station:NOAA.NDBC:PTAT2:1,2016-02-03T01:00:00Z,27.8260,-97.0510,1009.0,1111122 
NDBC,ioos:station:NOAA.NDBC:PTAT2:1,2016-02-03T02:00:00Z,27.8260,-97.0510,1009.6,1111122 
NDBC,ioos:station:NOAA.NDBC:PTAT2:1,2016-02-03T03:00:00Z,27.8260,-97.0510,1010.1,1111122 
NDBC,ioos:station:NOAA.NDBC:PTAT2:1,2016-02-03T04:00:00Z,27.8260,-97.0510,1010.5,1111122 
NDBC,ioos:station:NOAA.NDBC:PTAT2:1,2016-02-03T05:00:00Z,27.8260,-97.0510,1011.5,1111122 
NDBC,ioos:station:NOAA.NDBC:PTAT2:1,2016-02-03T06:00:00Z,27.8260,-97.0510,1012.3,1111122 
NDBC,ioos:station:NOAA.NDBC:PTAT2:1,2016-02-03T07:00:00Z,27.8260,-97.0510,1012.8,1111122 
NDBC,ioos:station:NOAA.NDBC:PTAT2:1,2016-02-03T08:00:00Z,27.8260,-97.0510,1013.2,1111122 
NDBC,ioos:station:NOAA.NDBC:PTAT2:1,2016-02-03T09:00:00Z,27.8260,-97.0510,1014.0,1111122 
NDBC,ioos:station:NOAA.NDBC:PTAT2:1,2016-02-03T10:00:00Z,27.8260,-97.0510,1014.6,1111122 
NDBC,ioos:station:NOAA.NDBC:PTAT2:1,2016-02-03T11:00:00Z,27.8260,-97.0510,1014.9,1111122 
NDBC,ioos:station:NOAA.NDBC:PTAT2:1,2016-02-03T12:00:00Z,27.8260,-97.0510,1016.0,1111122 
NDBC,ioos:station:NOAA.NDBC:PTAT2:1,2016-02-03T13:00:00Z,27.8260,-97.0510,1017.5,1111122 
NDBC,ioos:station:NOAA.NDBC:PTAT2:1,2016-02-03T14:00:00Z,27.8260,-97.0510,1019.2,1111122 
NDBC,ioos:station:NOAA.NDBC:PTAT2:1,2016-02-03T15:00:00Z,27.8260,-97.0510,1020.7,1111122 
NDBC,ioos:station:NOAA.NDBC:PTAT2:1,2016-02-03T16:00:00Z,27.8260,-97.0510,1021.6,1111122 
NDBC,ioos:station:NOAA.NDBC:PTAT2:1,2016-02-03T17:00:00Z,27.8260,-97.0510,1022.2,1111122 
NDBC,ioos:station:NOAA.NDBC:PTAT2:1,2016-02-03T18:00:00Z,27.8260,-97.0510,1022.0,1111122 
NDBC,ioos:station:NOAA.NDBC:PTAT2:1,2016-02-03T19:00:00Z,27.8260,-97.0510,1021.6,1111122 
NDBC,ioos:station:NOAA.NDBC:PTAT2:1,2016-02-03T20:00:00Z,27.8260,-97.0510,1021.1,1111122 
NDBC,ioos:station:NOAA.NDBC:PTAT2:1,2016-02-03T21:00:00Z,27.8260,-97.0510,1021.4,1111122 
NDBC,ioos:station:NOAA.NDBC:PTAT2:1,2016-02-03T22:00:00Z,27.8260,-97.0510,1021.2,1111122 
NDBC,ioos:station:NOAA.NDBC:PTAT2:1,2016-02-03T23:00:00Z,27.8260,-97.0510,1021.4,1111122 
NDBC,ioos:station:NOAA.NDBC:PTAT2:1,2016-02-04T00:00:00Z,27.8260,-97.0510,1022.2,1111122 
NDBC,ioos:station:NOAA.NDBC:PTAT2:1,2016-02-04T01:00:00Z,27.8260,-97.0510,1023.0,1111122 
NDBC,ioos:station:NOAA.NDBC:PTAT2:1,2016-02-04T02:00:00Z,27.8260,-97.0510,1024.1,1111122 
NDBC,ioos:station:NOAA.NDBC:PTAT2:1,2016-02-04T03:00:00Z,27.8260,-97.0510,1025.1,1111122 
NDBC,ioos:station:NOAA.NDBC:PTAT2:1,2016-02-04T04:00:00Z,27.8260,-97.0510,1025.9,1111122 
NDBC,ioos:station:NOAA.NDBC:PTAT2:1,2016-02-04T05:00:00Z,27.8260,-97.0510,1026.5,1111122 
NDBC,ioos:station:NOAA.NDBC:PTAT2:1,2016-02-04T06:00:00Z,27.8260,-97.0510,1027.1,1111122 
NDBC,ioos:station:NOAA.NDBC:PTAT2:1,2016-02-04T07:00:00Z,27.8260,-97.0510,1027.5,1111122 
NDBC,ioos:station:NOAA.NDBC:PTAT2:1,2016-02-04T08:00:00Z,27.8260,-97.0510,1028.0,1111122 
NDBC,ioos:station:NOAA.NDBC:PTAT2:1,2016-02-04T09:00:00Z,27.8260,-97.0510,1028.5,1111122 
NDBC,ioos:station:NOAA.NDBC:PTAT2:1,2016-02-04T10:00:00Z,27.8260,-97.0510,1029.0,1111122 
NDBC,ioos:station:NOAA.NDBC:PTAT2:1,2016-02-04T11:00:00Z,27.8260,-97.0510,1029.2,1111122 
NDBC,ioos:station:NOAA.NDBC:PTAT2:1,2016-02-04T12:00:00Z,27.8260,-97.0510,1030.0,1111122 
NDBC,ioos:station:NOAA.NDBC:PTAT2:1,2016-02-04T13:00:00Z,27.8260,-97.0510,1030.8,1111122 
NDBC,ioos:station:NOAA.NDBC:PTAT2:1,2016-02-04T14:00:00Z,27.8260,-97.0510,1031.6,1111122 
NDBC,ioos:station:NOAA.NDBC:PTAT2:1,2016-02-04T15:00:00Z,27.8260,-97.0510,1032.2,1111122 
NDBC,ioos:station:NOAA.NDBC:PTAT2:1,2016-02-04T16:00:00Z,27.8260,-97.0510,1032.8,1111122 
NDBC,ioos:station:NOAA.NDBC:PTAT2:1,2016-02-04T17:00:00Z,27.8260,-97.0510,1033.1,1111122 
NDBC,ioos:station:NOAA.NDBC:PTAT2:1,2016-02-04T18:00:00Z,27.8260,-97.0510,1032.6,1111122 
NDBC,ioos:station:NOAA.NDBC:PTAT2:1,2016-02-04T19:00:00Z,27.8260,-97.0510,1031.6,1111122 
NDBC,ioos:station:NOAA.NDBC:PTAT2:1,2016-02-04T20:00:00Z,27.8260,-97.0510,1030.9,1111122 
NDBC,ioos:station:NOAA.NDBC:PTAT2:1,2016-02-04T21:00:00Z,27.8260,-97.0510,1030.4,1111122 
NDBC,ioos:station:NOAA.NDBC:PTAT2:1,2016-02-04T22:00:00Z,27.8260,-97.0510,1030.2,1111122 
NDBC,ioos:station:NOAA.NDBC:PTAT2:1,2016-02-04T23:00:00Z,27.8260,-97.0510,1030.2,1111122 
NDBC,ioos:station:NOAA.NDBC:PTAT2:1,2016-02-05T00:00:00Z,27.8260,-97.0510,1030.0,1111122 
NDBC,ioos:station:NOAA.NDBC:PTAT2:1,2016-02-05T01:00:00Z,27.8260,-97.0510,1030.2,1111122 
NDBC,ioos:station:NOAA.NDBC:PTAT2:1,2016-02-05T02:00:00Z,27.8260,-97.0510,1030.6,1111122 
NDBC,ioos:station:NOAA.NDBC:PTAT2:1,2016-02-05T03:00:00Z,27.8260,-97.0510,1031.2,1111122 
NDBC,ioos:station:NOAA.NDBC:PTAT2:1,2016-02-05T04:00:00Z,27.8260,-97.0510,1031.7,1111122 
NDBC,ioos:station:NOAA.NDBC:PTAT2:1,2016-02-05T05:00:00Z,27.8260,-97.0510,1032.4,1111122 
NDBC,ioos:station:NOAA.NDBC:PTAT2:1,2016-02-05T06:00:00Z,27.8260,-97.0510,1032.2,1111122 
NDBC,ioos:station:NOAA.NDBC:PTAT2:1,2016-02-05T07:00:00Z,27.8260,-97.0510,1031.8,1111122 
NDBC,ioos:station:NOAA.NDBC:PTAT2:1,2016-02-05T08:00:00Z,27.8260,-97.0510,1031.6,1111122 
NDBC,ioos:station:NOAA.NDBC:PTAT2:1,2016-02-05T09:00:00Z,27.8260,-97.0510,1031.0,1111122 
NDBC,ioos:station:NOAA.NDBC:PTAT2:1,2016-02-05T11:00:00Z,27.8260,-97.0510,1030.2,1111122 
NDBC,ioos:station:NOAA.NDBC:PTAT2:1,2016-02-05T12:00:00Z,27.8260,-97.0510,1030.1,1111122 
NDBC,ioos:station:NOAA.NDBC:PTAT2:1,2016-02-05T13:00:00Z,27.8260,-97.0510,1030.3,1111122 
NDBC,ioos:station:NOAA.NDBC:PTAT2:1,2016-02-05T14:00:00Z,27.8260,-97.0510,1030.3,1111122 
NDBC,ioos:station:NOAA.NDBC:PTAT2:1,2016-02-05T15:00:00Z,27.8260,-97.0510,1030.7,1111122 
NDBC,ioos:station:NOAA.NDBC:PTAT2:1,2016-02-05T16:00:00Z,27.8260,-97.0510,1031.1,1111122 
NDBC,ioos:station:NOAA.NDBC:PTAT2:1,2016-02-05T17:00:00Z,27.8260,-97.0510,1030.9,1111122 
NDBC,ioos:station:NOAA.NDBC:PTAT2:1,2016-02-05T18:00:00Z,27.8260,-97.0510,1030.0,1111122 
NDBC,ioos:station:NOAA.NDBC:PTAT2:1,2016-02-05T19:00:00Z,27.8260,-97.0510,1028.5,1111122 
NDBC,ioos:station:NOAA.NDBC:PTAT2:1,2016-02-05T20:00:00Z,27.8260,-97.0510,1027.1,1111122 
NDBC,ioos:station:NOAA.NDBC:PTAT2:1,2016-02-05T21:00:00Z,27.8260,-97.0510,1026.4,1111122 
NDBC,ioos:station:NOAA.NDBC:PTAT2:1,2016-02-05T22:00:00Z,27.8260,-97.0510,1026.0,1111122 
NDBC,ioos:station:NOAA.NDBC:PTAT2:1,2016-02-06T00:00:00Z,27.8260,-97.0510,1025.8,1111122 
NDBC,ioos:station:NOAA.NDBC:PTAT2:1,2016-02-06T01:00:00Z,27.8260,-97.0510,1025.5,1111122 
NDBC,ioos:station:NOAA.NDBC:PTAT2:1,2016-02-06T02:00:00Z,27.8260,-97.0510,1026.1,1111122 
NDBC,ioos:station:NOAA.NDBC:PTAT2:1,2016-02-06T03:00:00Z,27.8260,-97.0510,1026.2,1111122 
NDBC,ioos:station:NOAA.NDBC:PTAT2:1,2016-02-06T04:00:00Z,27.8260,-97.0510,1026.5,1111122 
NDBC,ioos:station:NOAA.NDBC:PTAT2:1,2016-02-06T05:00:00Z,27.8260,-97.0510,1027.1,1111122 
NDBC,ioos:station:NOAA.NDBC:PTAT2:1,2016-02-06T06:00:00Z,27.8260,-97.0510,1026.9,1111122 
NDBC,ioos:station:NOAA.NDBC:PTAT2:1,2016-02-06T07:00:00Z,27.8260,-97.0510,1026.7,1111122 
NDBC,ioos:station:NOAA.NDBC:PTAT2:1,2016-02-06T08:00:00Z,27.8260,-97.0510,1026.9,1111122 
NDBC,ioos:station:NOAA.NDBC:PTAT2:1,2016-02-06T09:00:00Z,27.8260,-97.0510,1026.8,1111122 
NDBC,ioos:station:NOAA.NDBC:PTAT2:1,2016-02-06T10:00:00Z,27.8260,-97.0510,1026.4,1111122 
NDBC,ioos:station:NOAA.NDBC:PTAT2:1,2016-02-06T11:00:00Z,27.8260,-97.0510,1026.6,1111122 
NDBC,ioos:station:NOAA.NDBC:PTAT2:1,2016-02-06T12:00:00Z,27.8260,-97.0510,1027.1,1111122 
NDBC,ioos:station:NOAA.NDBC:PTAT2:1,2016-02-06T13:00:00Z,27.8260,-97.0510,1027.6,1111122 
NDBC,ioos:station:NOAA.NDBC:PTAT2:1,2016-02-06T14:00:00Z,27.8260,-97.0510,1028.9,1111122 
NDBC,ioos:station:NOAA.NDBC:PTAT2:1,2016-02-06T15:00:00Z,27.8260,-97.0510,1029.4,1111122 
NDBC,ioos:station:NOAA.NDBC:PTAT2:1,2016-02-06T16:00:00Z,27.8260,-97.0510,1029.8,1111122 
NDBC,ioos:station:NOAA.NDBC:PTAT2:1,2016-02-06T17:00:00Z,27.8260,-97.0510,1029.9,1111122 
NDBC,ioos:station:NOAA.NDBC:PTAT2:1,2016-02-06T18:00:00Z,27.8260,-97.0510,1029.2,1111122 
NDBC,ioos:station:NOAA.NDBC:PTAT2:1,2016-02-06T19:00:00Z,27.8260,-97.0510,1028.4,1111122 
NDBC,ioos:station:NOAA.NDBC:PTAT2:1,2016-02-06T20:00:00Z,27.8260,-97.0510,1027.7,1111122 
NDBC,ioos:station:NOAA.NDBC:PTAT2:1,2016-02-06T21:00:00Z,27.8260,-97.0510,1027.4,1111122 
NDBC,ioos:station:NOAA.NDBC:PTAT2:1,2016-02-06T22:00:00Z,27.8260,-97.0510,1027.5,1111122 
NDBC,ioos:station:NOAA.NDBC:PTAT2:1,2016-02-06T23:00:00Z,27.8260,-97.0510,1027.7,1111122 
NDBC,ioos:station:NOAA.NDBC:PTAT2:1,2016-02-07T00:00:00Z,27.8260,-97.0510,1027.9,1111122 
NDBC,ioos:station:NOAA.NDBC:PTAT2:1,2016-02-07T01:00:00Z,27.8260,-97.0510,1028.4,1111122 
NDBC,ioos:station:NOAA.NDBC:PTAT2:1,2016-02-07T02:00:00Z,27.8260,-97.0510,1028.9,1111122 
NDBC,ioos:station:NOAA.NDBC:PTAT2:1,2016-02-07T03:00:00Z,27.8260,-97.0510,1029.0,1111122 
NDBC,ioos:station:NOAA.NDBC:PTAT2:1,2016-02-07T04:00:00Z,27.8260,-97.0510,1029.3,1111122 
NDBC,ioos:station:NOAA.NDBC:PTAT2:1,2016-02-07T05:00:00Z,27.8260,-97.0510,1029.2,1111122 
NDBC,ioos:station:NOAA.NDBC:PTAT2:1,2016-02-07T06:00:00Z,27.8260,-97.0510,1028.9,1111122 
NDBC,ioos:station:NOAA.NDBC:PTAT2:1,2016-02-07T07:00:00Z,27.8260,-97.0510,1028.7,1111122 
NDBC,ioos:station:NOAA.NDBC:PTAT2:1,2016-02-07T08:00:00Z,27.8260,-97.0510,1028.1,1111122 
NDBC,ioos:station:NOAA.NDBC:PTAT2:1,2016-02-07T09:00:00Z,27.8260,-97.0510,1028.0,1111122 
NDBC,ioos:station:NOAA.NDBC:PTAT2:1,2016-02-07T10:00:00Z,27.8260,-97.0510,1027.0,1111122 
NDBC,ioos:station:NOAA.NDBC:PTAT2:1,2016-02-07T11:00:00Z,27.8260,-97.0510,1026.5,1111122 
NDBC,ioos:station:NOAA.NDBC:PTAT2:1,2016-02-07T12:00:00Z,27.8260,-97.0510,1026.7,1111122 
NDBC,ioos:station:NOAA.NDBC:PTAT2:1,2016-02-07T13:00:00Z,27.8260,-97.0510,1026.3,1111122 
NDBC,ioos:station:NOAA.NDBC:PTAT2:1,2016-02-07T14:00:00Z,27.8260,-97.0510,1026.7,1111122 
NDBC,ioos:station:NOAA.NDBC:PTAT2:1,2016-02-07T15:00:00Z,27.8260,-97.0510,1026.7,1111122 
NDBC,ioos:station:NOAA.NDBC:PTAT2:1,2016-02-07T16:00:00Z,27.8260,-97.0510,1027.0,1111122 
NDBC,ioos:station:NOAA.NDBC:PTAT2:1,2016-02-07T17:00:00Z,27.8260,-97.0510,1026.9,1111122 
NDBC,ioos:station:NOAA.NDBC:PTAT2:1,2016-02-07T18:00:00Z,27.8260,-97.0510,1026.2,1111122 
NDBC,ioos:station:NOAA.NDBC:PTAT2:1,2016-02-07T19:00:00Z,27.8260,-97.0510,1024.8,1111122 
NDBC,ioos:station:NOAA.NDBC:PTAT2:1,2016-02-07T20:00:00Z,27.8260,-97.0510,1023.9,1111122 
NDBC,ioos:station:NOAA.NDBC:PTAT2:1,2016-02-07T21:00:00Z,27.8260,-97.0510,1023.2,1111122 
NDBC,ioos:station:NOAA.NDBC:PTAT2:1,2016-02-07T22:00:00Z,27.8260,-97.0510,1022.4,1111122 
NDBC,ioos:station:NOAA.NDBC:PTAT2:1,2016-02-07T23:00:00Z,27.8260,-97.0510,1021.4,1111122 
NDBC,ioos:station:NOAA.NDBC:PTAT2:1,2016-02-08T00:00:00Z,27.8260,-97.0510,1021.3,1111122 
NDBC,ioos:station:NOAA.NDBC:PTAT2:1,2016-02-08T01:00:00Z,27.8260,-97.0510,1021.7,1111122 
NDBC,ioos:station:NOAA.NDBC:PTAT2:1,2016-02-08T02:00:00Z,27.8260,-97.0510,1022.2,1111122 
NDBC,ioos:station:NOAA.NDBC:PTAT2:1,2016-02-08T03:00:00Z,27.8260,-97.0510,1022.5,1111122 
NDBC,ioos:station:NOAA.NDBC:PTAT2:1,2016-02-08T04:00:00Z,27.8260,-97.0510,1022.7,1111122 
NDBC,ioos:station:NOAA.NDBC:PTAT2:1,2016-02-08T05:00:00Z,27.8260,-97.0510,1022.9,1111122 
NDBC,ioos:station:NOAA.NDBC:PTAT2:1,2016-02-08T06:00:00Z,27.8260,-97.0510,1022.2,1111122 
NDBC,ioos:station:NOAA.NDBC:PTAT2:1,2016-02-08T07:00:00Z,27.8260,-97.0510,1021.9,1111122 
NDBC,ioos:station:NOAA.NDBC:PTAT2:1,2016-02-08T08:00:00Z,27.8260,-97.0510,1021.7,1111122 
NDBC,ioos:station:NOAA.NDBC:PTAT2:1,2016-02-08T09:00:00Z,27.8260,-97.0510,1021.8,1111122 
NDBC,ioos:station:NOAA.NDBC:PTAT2:1,2016-02-08T10:00:00Z,27.8260,-97.0510,1022.1,1111122 
NDBC,ioos:station:NOAA.NDBC:PTAT2:1,2016-02-08T11:00:00Z,27.8260,-97.0510,1022.9,1111122 
NDBC,ioos:station:NOAA.NDBC:PTAT2:1,2016-02-08T12:00:00Z,27.8260,-97.0510,1024.4,1111122 
NDBC,ioos:station:NOAA.NDBC:PTAT2:1,2016-02-08T13:00:00Z,27.8260,-97.0510,1024.9,1111122 
NDBC,ioos:station:NOAA.NDBC:PTAT2:1,2016-02-08T14:00:00Z,27.8260,-97.0510,1026.1,1111122 
NDBC,ioos:station:NOAA.NDBC:PTAT2:1,2016-02-08T15:00:00Z,27.8260,-97.0510,1027.5,1111122 
NDBC,ioos:station:NOAA.NDBC:PTAT2:1,2016-02-08T16:00:00Z,27.8260,-97.0510,1028.8,1111122 
NDBC,ioos:station:NOAA.NDBC:PTAT2:1,2016-02-08T17:00:00Z,27.8260,-97.0510,1029.3,1111122 
NDBC,ioos:station:NOAA.NDBC:PTAT2:1,2016-02-08T18:00:00Z,27.8260,-97.0510,1029.2,1111122 
NDBC,ioos:station:NOAA.NDBC:PTAT2:1,2016-02-08T19:00:00Z,27.8260,-97.0510,1028.5,1111122 
NDBC,ioos:station:NOAA.NDBC:PTAT2:1,2016-02-08T20:00:00Z,27.8260,-97.0510,1027.5,1111122 
NDBC,ioos:station:NOAA.NDBC:PTAT2:1,2016-02-08T21:00:00Z,27.8260,-97.0510,1026.7,1111122 
NDBC,ioos:station:NOAA.NDBC:PTAT2:1,2016-02-08T22:00:00Z,27.8260,-97.0510,1026.4,1111122 
NDBC,ioos:station:NOAA.NDBC:PTAT2:1,2016-02-08T23:00:00Z,27.8260,-97.0510,1026.7,1111122 
NDBC,ioos:station:NOAA.NDBC:PTAT2:1,2016-02-09T00:00:00Z,27.8260,-97.0510,1026.7,1111122 
NDBC,ioos:station:NOAA.NDBC:PTAT2:1,2016-02-09T01:00:00Z,27.8260,-97.0510,1026.9,1111122 
NDBC,ioos:station:NOAA.NDBC:PTAT2:1,2016-02-09T02:00:00Z,27.8260,-97.0510,1027.2,1111122 
NDBC,ioos:station:NOAA.NDBC:PTAT2:1,2016-02-09T03:00:00Z,27.8260,-97.0510,1028.2,1111122 
NDBC,ioos:station:NOAA.NDBC:PTAT2:1,2016-02-09T04:00:00Z,27.8260,-97.0510,1028.5,1111122 
NDBC,ioos:station:NOAA.NDBC:PTAT2:1,2016-02-09T05:00:00Z,27.8260,-97.0510,1028.6,1111122 
NDBC,ioos:station:NOAA.NDBC:PTAT2:1,2016-02-09T06:00:00Z,27.8260,-97.0510,1028.6,1111122 
NDBC,ioos:station:NOAA.NDBC:PTAT2:1,2016-02-09T07:00:00Z,27.8260,-97.0510,1028.6,1111122 
NDBC,ioos:station:NOAA.NDBC:PTAT2:1,2016-02-09T08:00:00Z,27.8260,-97.0510,1028.1,1111122 
NDBC,ioos:station:NOAA.NDBC:PTAT2:1,2016-02-09T09:00:00Z,27.8260,-97.0510,1027.6,1111122 
NDBC,ioos:station:NOAA.NDBC:PTAT2:1,2016-02-09T10:00:00Z,27.8260,-97.0510,1027.8,1111122 
NDBC,ioos:station:NOAA.NDBC:PTAT2:1,2016-02-09T11:00:00Z,27.8260,-97.0510,1028.2,1111122 
NDBC,ioos:station:NOAA.NDBC:PTAT2:1,2016-02-09T12:00:00Z,27.8260,-97.0510,1028.6,1111122 
NDBC,ioos:station:NOAA.NDBC:PTAT2:1,2016-02-09T13:00:00Z,27.8260,-97.0510,1029.3,1111122 
NDBC,ioos:station:NOAA.NDBC:PTAT2:1,2016-02-09T15:00:00Z,27.8260,-97.0510,1030.1,1111122 
NDBC,ioos:station:NOAA.NDBC:PTAT2:1,2016-02-09T16:00:00Z,27.8260,-97.0510,1030.7,1111122 
NDBC,ioos:station:NOAA.NDBC:PTAT2:1,2016-02-09T17:00:00Z,27.8260,-97.0510,1030.5,1111122 
NDBC,ioos:station:NOAA.NDBC:PTAT2:1,2016-02-09T18:00:00Z,27.8260,-97.0510,1029.6,1111122 
NDBC,ioos:station:NOAA.NDBC:PTAT2:1,2016-02-09T19:00:00Z,27.8260,-97.0510,1028.4,1111122 
NDBC,ioos:station:NOAA.NDBC:PTAT2:1,2016-02-09T20:00:00Z,27.8260,-97.0510,1027.0,1111122 
NDBC,ioos:station:NOAA.NDBC:PTAT2:1,2016-02-09T21:00:00Z,27.8260,-97.0510,1026.2,1111122 
NDBC,ioos:station:NOAA.NDBC:PTAT2:1,2016-02-09T22:00:00Z,27.8260,-97.0510,1025.7,1111122 
NDBC,ioos:station:NOAA.NDBC:PTAT2:1,2016-02-09T23:00:00Z,27.8260,-97.0510,1025.7,1111122 
NDBC,ioos:station:NOAA.NDBC:PTAT2:1,2016-02-10T00:00:00Z,27.8260,-97.0510,1025.7,1111122 
NDBC,ioos:station:NOAA.NDBC:PTAT2:1,2016-02-10T01:00:00Z,27.8260,-97.0510,1026.2,1111122 
NDBC,ioos:station:NOAA.NDBC:PTAT2:1,2016-02-10T02:00:00Z,27.8260,-97.0510,1026.7,1111122 
NDBC,ioos:station:NOAA.NDBC:PTAT2:1,2016-02-10T03:00:00Z,27.8260,-97.0510,1026.9,1111122 
NDBC,ioos:station:NOAA.NDBC:PTAT2:1,2016-02-10T04:00:00Z,27.8260,-97.0510,1027.2,1111122 
NDBC,ioos:station:NOAA.NDBC:PTAT2:1,2016-02-10T05:00:00Z,27.8260,-97.0510,1027.3,1111122 
NDBC,ioos:station:NOAA.NDBC:PTAT2:1,2016-02-10T06:00:00Z,27.8260,-97.0510,1027.4,1111122 
NDBC,ioos:station:NOAA.NDBC:PTAT2:1,2016-02-10T07:00:00Z,27.8260,-97.0510,1027.0,1111122 
NDBC,ioos:station:NOAA.NDBC:PTAT2:1,2016-02-10T08:00:00Z,27.8260,-97.0510,1027.1,1111122 
NDBC,ioos:station:NOAA.NDBC:PTAT2:1,2016-02-10T09:00:00Z,27.8260,-97.0510,1027.0,1111122 
NDBC,ioos:station:NOAA.NDBC:PTAT2:1,2016-02-10T10:00:00Z,27.8260,-97.0510,1027.0,1111122 
NDBC,ioos:station:NOAA.NDBC:PTAT2:1,2016-02-10T11:00:00Z,27.8260,-97.0510,1027.3,1111122 
NDBC,ioos:station:NOAA.NDBC:PTAT2:1,2016-02-10T12:00:00Z,27.8260,-97.0510,1027.5,1111122 
NDBC,ioos:station:NOAA.NDBC:PTAT2:1,2016-02-10T13:00:00Z,27.8260,-97.0510,1028.6,1111122 
NDBC,ioos:station:NOAA.NDBC:PTAT2:1,2016-02-10T14:00:00Z,27.8260,-97.0510,1029.1,1111122 
NDBC,ioos:station:NOAA.NDBC:PTAT2:1,2016-02-10T15:00:00Z,27.8260,-97.0510,1029.7,1111122 
NDBC,ioos:station:NOAA.NDBC:PTAT2:1,2016-02-10T16:00:00Z,27.8260,-97.0510,1030.3,1111122 
NDBC,ioos:station:NOAA.NDBC:PTAT2:1,2016-02-10T17:00:00Z,27.8260,-97.0510,1030.4,1111122 
NDBC,ioos:station:NOAA.NDBC:PTAT2:1,2016-02-10T18:00:00Z,27.8260,-97.0510,1029.9,1111122 
NDBC,ioos:station:NOAA.NDBC:PTAT2:1,2016-02-10T19:00:00Z,27.8260,-97.0510,1029.0,1111122 
NDBC,ioos:station:NOAA.NDBC:PTAT2:1,2016-02-10T20:00:00Z,27.8260,-97.0510,1027.7,1111122 
NDBC,ioos:station:NOAA.NDBC:PTAT2:1,2016-02-10T21:00:00Z,27.8260,-97.0510,1026.9,1111122 
NDBC,ioos:station:NOAA.NDBC:PTAT2:1,2016-02-10T22:00:00Z,27.8260,-97.0510,1026.5,1111122 
NDBC,ioos:station:NOAA.NDBC:PTAT2:1,2016-02-10T23:00:00Z,27.8260,-97.0510,1026.4,1111122 
NDBC,ioos:station:NOAA.NDBC:PTAT2:1,2016-02-11T00:00:00Z,27.8260,-97.0510,1026.0,1111122 
NDBC,ioos:station:NOAA.NDBC:PTAT2:1,2016-02-11T01:00:00Z,27.8260,-97.0510,1025.7,1111122 
NDBC,ioos:station:NOAA.NDBC:PTAT2:1,2016-02-11T02:00:00Z,27.8260,-97.0510,1025.5,1111122 
NDBC,ioos:station:NOAA.NDBC:PTAT2:1,2016-02-11T03:00:00Z,27.8260,-97.0510,1025.3,1111122 
NDBC,ioos:station:NOAA.NDBC:PTAT2:1,2016-02-11T04:00:00Z,27.8260,-97.0510,1025.0,1111122 
NDBC,ioos:station:NOAA.NDBC:PTAT2:1,2016-02-11T05:00:00Z,27.8260,-97.0510,1024.6,1111122 
NDBC,ioos:station:NOAA.NDBC:PTAT2:1,2016-02-11T06:00:00Z,27.8260,-97.0510,1024.2,1111122 
NDBC,ioos:station:NOAA.NDBC:PTAT2:1,2016-02-11T07:00:00Z,27.8260,-97.0510,1023.5,1111122 
NDBC,ioos:station:NOAA.NDBC:PTAT2:1,2016-02-11T08:00:00Z,27.8260,-97.0510,1023.4,1111122 
NDBC,ioos:station:NOAA.NDBC:PTAT2:1,2016-02-11T09:00:00Z,27.8260,-97.0510,1022.9,1111122 
NDBC,ioos:station:NOAA.NDBC:PTAT2:1,2016-02-11T10:00:00Z,27.8260,-97.0510,1022.5,1111122 
NDBC,ioos:station:NOAA.NDBC:PTAT2:1,2016-02-11T11:00:00Z,27.8260,-97.0510,1022.6,1111122 
NDBC,ioos:station:NOAA.NDBC:PTAT2:1,2016-02-11T12:00:00Z,27.8260,-97.0510,1022.8,1111122 
NDBC,ioos:station:NOAA.NDBC:PTAT2:1,2016-02-11T13:00:00Z,27.8260,-97.0510,1023.0,1111122 
NDBC,ioos:station:NOAA.NDBC:PTAT2:1,2016-02-11T14:00:00Z,27.8260,-97.0510,1023.3,1111122 
NDBC,ioos:station:NOAA.NDBC:PTAT2:1,2016-02-11T16:00:00Z,27.8260,-97.0510,1024.0,1111122 
NDBC,ioos:station:NOAA.NDBC:PTAT2:1,2016-02-11T17:00:00Z,27.8260,-97.0510,1024.0,1111122 
NDBC,ioos:station:NOAA.NDBC:PTAT2:1,2016-02-11T18:00:00Z,27.8260,-97.0510,1023.5,1111122 
NDBC,ioos:station:NOAA.NDBC:PTAT2:1,2016-02-11T19:00:00Z,27.8260,-97.0510,1022.6,1111122 
NDBC,ioos:station:NOAA.NDBC:PTAT2:1,2016-02-11T20:00:00Z,27.8260,-97.0510,1021.9,1111122 
NDBC,ioos:station:NOAA.NDBC:PTAT2:1,2016-02-11T21:00:00Z,27.8260,-97.0510,1021.2,1111122 
NDBC,ioos:station:NOAA.NDBC:PTAT2:1,2016-02-11T22:00:00Z,27.8260,-97.0510,1020.8,1111122 
NDBC,ioos:station:NOAA.NDBC:PTAT2:1,2016-02-11T23:00:00Z,27.8260,-97.0510,1021.3,1111122 
NDBC,ioos:station:NOAA.NDBC:PTAT2:1,2016-02-12T00:00:00Z,27.8260,-97.0510,1021.2,1111122 
NDBC,ioos:station:NOAA.NDBC:PTAT2:1,2016-02-12T01:00:00Z,27.8260,-97.0510,1021.3,1111122 
NDBC,ioos:station:NOAA.NDBC:PTAT2:1,2016-02-12T02:00:00Z,27.8260,-97.0510,1022.2,1111122 
NDBC,ioos:station:NOAA.NDBC:PTAT2:1,2016-02-12T03:00:00Z,27.8260,-97.0510,1022.6,1111122 
NDBC,ioos:station:NOAA.NDBC:PTAT2:1,2016-02-12T04:00:00Z,27.8260,-97.0510,1022.7,1111122 
NDBC,ioos:station:NOAA.NDBC:PTAT2:1,2016-02-12T05:00:00Z,27.8260,-97.0510,1022.4,1111122 
NDBC,ioos:station:NOAA.NDBC:PTAT2:1,2016-02-12T06:00:00Z,27.8260,-97.0510,1022.5,1111122 
NDBC,ioos:station:NOAA.NDBC:PTAT2:1,2016-02-12T07:00:00Z,27.8260,-97.0510,1022.1,1111122 
NDBC,ioos:station:NOAA.NDBC:PTAT2:1,2016-02-12T08:00:00Z,27.8260,-97.0510,1021.7,1111122 
NDBC,ioos:station:NOAA.NDBC:PTAT2:1,2016-02-12T09:00:00Z,27.8260,-97.0510,1021.5,1111122 
NDBC,ioos:station:NOAA.NDBC:PTAT2:1,2016-02-12T10:00:00Z,27.8260,-97.0510,1021.7,1111122 
NDBC,ioos:station:NOAA.NDBC:PTAT2:1,2016-02-12T11:00:00Z,27.8260,-97.0510,1021.9,1111122 
NDBC,ioos:station:NOAA.NDBC:PTAT2:1,2016-02-12T12:00:00Z,27.8260,-97.0510,1022.4,1111122 
NDBC,ioos:station:NOAA.NDBC:PTAT2:1,2016-02-12T13:00:00Z,27.8260,-97.0510,1023.0,1111122 
NDBC,ioos:station:NOAA.NDBC:PTAT2:1,2016-02-12T14:00:00Z,27.8260,-97.0510,1023.3,1111122 
NDBC,ioos:station:NOAA.NDBC:PTAT2:1,2016-02-12T15:00:00Z,27.8260,-97.0510,1023.9,1111122 
NDBC,ioos:station:NOAA.NDBC:PTAT2:1,2016-02-12T16:00:00Z,27.8260,-97.0510,1024.6,1111122 
NDBC,ioos:station:NOAA.NDBC:PTAT2:1,2016-02-12T17:00:00Z,27.8260,-97.0510,1024.9,1111122 
NDBC,ioos:station:NOAA.NDBC:PTAT2:1,2016-02-12T18:00:00Z,27.8260,-97.0510,1024.7,1111122 
NDBC,ioos:station:NOAA.NDBC:PTAT2:1,2016-02-12T19:00:00Z,27.8260,-97.0510,1024.1,1111122 
NDBC,ioos:station:NOAA.NDBC:PTAT2:1,2016-02-12T20:00:00Z,27.8260,-97.0510,1023.2,1111122 
NDBC,ioos:station:NOAA.NDBC:PTAT2:1,2016-02-12T21:00:00Z,27.8260,-97.0510,1022.9,1111122 
NDBC,ioos:station:NOAA.NDBC:PTAT2:1,2016-02-12T22:00:00Z,27.8260,-97.0510,1022.7,1111122 